Weather History for Craig, CO

Change the Weather History Date:

Friday, July 12, 2013

  Actual Average Record
Temperature  
Mean Temperature 73 °F 67 °F  
Max Temperature 92 °F 88 °F 97 °F (2003)
Min Temperature 53 °F 46 °F 42 °F (1996)
Degree Days  
Heating Degree Days 0 1  
Month to date heating degree days 0 16  
Since 1 June heating degree days 88 191  
Since 1 July heating degree days 0 16  
Cooling Degree Days 8 2  
Month to date cooling degree days 77 20  
Year to date cooling degree days 121 30  
Since 1 June cooling degree days 121 30  
Growing Degree Days 22 (Base 50)    
Moisture  
Dew Point 52 °F    
Average Humidity 53    
Maximum Humidity 86    
Minimum Humidity 20    
Precipitation  
Precipitation 0.01 in 0.03 in 0.12 in (2011)
Month to date precipitation 0.04 0.46  
Year to date precipitation 5.29 7.97  
Sea Level Pressure  
Sea Level Pressure 29.92 in    
Wind  
Wind Speed 7 mph (WNW)    
Max Wind Speed 26 mph    
Max Gust Speed 36 mph    
Visibility 10 miles    
Events Rain , Thunderstorm    
T = Trace of Precipitation, MM = Missing Value Source: NWS Daily Summary

Daily Weather History Graph

Daily Weather History Graph

Search for Another Location

Airport:

Trip Planner

Search our weather history database for the weather conditions in past years. The results will help you decide how hot, cold, wet, or windy it might be!

Date:

Astronomy

Jul. 12, 2013 Rise Set
Actual Time 5:50 AM MDT 8:40 PM MDT
Civil Twilight 5:18 AM MDT 9:13 PM MDT
Nautical Twilight 4:37 AM MDT 9:53 PM MDT
Astronomical Twilight 3:50 AM MDT 10:40 PM MDT
Moon 10:11 AM MDT (7/12) 10:51 PM MDT (7/12)
Length of Visible Light 15h 55m
Length of Day
14h 50m
Waxing Crescent, 18% of the Moon is Illuminated
Jul 12
Waxing Crescent
Jul 15
First Quarter
Jul 22
Full
Jul 29
Last Quarter
Aug 6
New

Hourly Weather History & Observations

Time (MDT) Temp. Dew Point Humidity Pressure Visibility Wind Dir Wind Speed Gust Speed Precip Events Conditions
12:53 AM 66.9 °F 53.1 °F 61% 29.92 in 10.0 mi Calm Calm - 0.00 in Rain Light Rain
1:53 AM 64.0 °F 57.0 °F 78% 29.88 in 10.0 mi NE 4.6 mph - 0.00 in Rain Light Rain
2:53 AM 61.0 °F 55.0 °F 81% 29.88 in 10.0 mi ESE 4.6 mph - 0.00 in   Clear
3:53 AM 62.1 °F 54.0 °F 75% 29.86 in 10.0 mi East 5.8 mph - N/A   Clear
4:53 AM 57.9 °F 53.1 °F 84% 29.88 in 10.0 mi SE 3.5 mph - N/A   Clear
5:53 AM 55.0 °F 50.0 °F 83% 29.91 in 10.0 mi Calm Calm - N/A   Clear
6:53 AM 59.0 °F 52.0 °F 78% 29.92 in 10.0 mi Calm Calm - N/A   Clear
7:53 AM 61.0 °F 54.0 °F 78% 29.94 in 10.0 mi Calm Calm - N/A   Clear
8:53 AM 69.1 °F 53.1 °F 57% 29.92 in 10.0 mi NE 4.6 mph - N/A   Clear
9:53 AM 73.9 °F 53.1 °F 48% 29.91 in 10.0 mi Calm Calm - N/A   Clear
10:53 AM 81.0 °F 51.1 °F 35% 29.88 in 10.0 mi WSW 10.4 mph - N/A   Clear
11:53 AM 84.0 °F 50.0 °F 31% 29.87 in 10.0 mi SW 12.7 mph 17.3 mph N/A   Scattered Clouds
12:53 PM 84.0 °F 48.9 °F 29% 29.86 in 10.0 mi SW 10.4 mph 23.0 mph N/A   Mostly Cloudy
1:53 PM 84.9 °F 50.0 °F 30% 29.85 in 10.0 mi WNW 12.7 mph - N/A   Scattered Clouds
2:53 PM 87.1 °F 46.0 °F 24% 29.83 in 10.0 mi SW 16.1 mph 31.1 mph N/A   Scattered Clouds
3:53 PM 87.1 °F 50.0 °F 28% 29.81 in 10.0 mi WNW 12.7 mph 20.7 mph N/A   Scattered Clouds
4:05 PM 87.8 °F 48.2 °F 25% 30.07 in 10.0 mi NW 9.2 mph - N/A   Scattered Clouds
4:53 PM 88.0 °F 41.0 °F 19% 29.82 in 10.0 mi SW 13.8 mph 27.6 mph N/A   Clear
5:10 PM 82.4 °F 48.2 °F 30% 30.09 in 10.0 mi WNW 21.9 mph 31.1 mph N/A   Partly Cloudy
5:53 PM 81.0 °F 51.1 °F 35% 29.88 in 10.0 mi NNW 10.4 mph 20.7 mph N/A   Scattered Clouds
6:35 PM 75.2 °F 51.8 °F 44% 30.13 in 10.0 mi North 10.4 mph 19.6 mph N/A Thunderstorm Thunderstorm
6:53 PM 75.0 °F 57.0 °F 53% 29.91 in 9.0 mi North 8.1 mph - 0.00 in Rain Light Rain
7:53 PM 77.0 °F 51.1 °F 40% 29.92 in 10.0 mi NNW 8.1 mph - 0.01 in   Clear
8:53 PM 72.0 °F 53.1 °F 51% 29.92 in 10.0 mi Calm Calm - N/A   Mostly Cloudy
9:31 PM 68.0 °F 57.2 °F 68% 30.16 in 10.0 mi SE 9.2 mph - N/A Thunderstorm Partly Cloudy
9:53 PM 70.0 °F 55.9 °F 61% 29.94 in 10.0 mi South 8.1 mph - 0.00 in Rain , Thunderstorm Light Rain
10:12 PM 68.0 °F 55.4 °F 64% 30.18 in 10.0 mi Variable 4.6 mph - 0.00 in   Overcast
10:53 PM 66.9 °F 55.9 °F 68% 29.94 in 10.0 mi Calm Calm - 0.00 in   Mostly Cloudy
11:53 PM 64.9 °F 55.9 °F 73% 29.94 in 10.0 mi East 4.6 mph - N/A   Partly Cloudy